West West Florida High School FL US WEATHERSTEM current weather conditions

sailwx.info

Wind from 360 at 7 knots gusting 13

Air temperature 7.2° C
Dewpoint -4.2° C

Last reported at 2020-Jan-20 23:00 UTC.
Time now 2020-Jan-20 23:21 UTC

Location: N 30°30' W 087°15'.
View on Google Maps.

See reports from other nearby stations

  
Tides and Currents Weather Stations Pressure Air Temp Water Temp Dewpoint Dewpoint Depression Visibility Wind Speed Wind Dir Waves Ship Positions
date/time (UTC)wind fromknots sea level pressurealtimeterstation pressurevisibilityair tempwater tempwave heightnotes
2020-Jan-20 23:00 360 7 gusting 13 7.2
2020-Jan-20 22:50 333 6 gusting 13 7.4
2020-Jan-20 22:40 334 11 gusting 15 7.6
2020-Jan-20 22:30 329 12 gusting 17 7.8
2020-Jan-20 22:20 341 10 gusting 15 8.0
2020-Jan-20 22:10 319 3 gusting 14 8.1
2020-Jan-20 22:00 340 13 gusting 17 8.2
2020-Jan-20 21:50 009 6 gusting 17 8.2
2020-Jan-20 21:40 329 17 gusting 17 8.2
2020-Jan-20 21:20 017 13 gusting 17 8.4
2020-Jan-20 21:10 355 14 gusting 17 8.3
2020-Jan-20 21:00 329 13 gusting 19 8.5
2020-Jan-20 20:40 015 6 gusting 18 8.4
2020-Jan-20 20:30 305 8 gusting 18 8.3
2020-Jan-20 20:20 329 7 gusting 21 8.3
2020-Jan-20 20:10 312 13 gusting 20 8.1
2020-Jan-20 20:00 323 13 gusting 16 8.2
2020-Jan-20 19:50 355 8 gusting 19 8.3
2020-Jan-20 19:40 320 10 gusting 23 7.8
2020-Jan-20 19:30 330 12 gusting 18 7.8
2020-Jan-20 19:20 053 4 gusting 18 7.6
2020-Jan-20 19:10 360 5 gusting 20 7.3
2020-Jan-20 19:00 005 10 gusting 19 7.2
2020-Jan-20 18:50 360 9 gusting 16 7.1
2020-Jan-20 18:40 086 6 gusting 19 6.7
2020-Jan-20 18:30 033 5 gusting 18 6.1
2020-Jan-20 18:20 355 11 gusting 19 6.0
2020-Jan-20 18:10 020 11 gusting 19 5.9
2020-Jan-20 18:00 329 6 gusting 21 5.8
2020-Jan-20 17:50 333 12 gusting 18 5.3
2020-Jan-20 17:40 346 11 gusting 19 5.4
2020-Jan-20 17:30 329 9 gusting 19 5.7
2020-Jan-20 17:20 332 11 gusting 16 5.7
2020-Jan-20 17:00 337 11 gusting 15 5.3
2020-Jan-20 16:50 340 10 gusting 18 4.8
2020-Jan-20 16:40 314 9 gusting 15 4.6
2020-Jan-20 16:30 360 12 gusting 19 4.2
2020-Jan-20 16:20 321 12 gusting 18 3.8
2020-Jan-20 16:10 319 12 gusting 19 3.9
2020-Jan-20 16:00 344 6 gusting 17 3.6
2020-Jan-20 15:50 302 8 gusting 14 3.7
2020-Jan-20 15:30 005 12 gusting 15 3.1
2020-Jan-20 15:20 305 4 gusting 15 2.9
2020-Jan-20 15:10 341 6 gusting 16 2.6
2020-Jan-20 15:00 017 6 gusting 16 2.3
2020-Jan-20 14:50 329 8 gusting 16 1.9
2020-Jan-20 14:40 321 5 gusting 19 1.8
2020-Jan-20 14:30 341 7 gusting 17 1.8
2020-Jan-20 14:20 343 12 gusting 19 1.8
2020-Jan-20 14:10 332 12 gusting 16 1.8
2020-Jan-20 14:00 355 13 gusting 16 1.7
2020-Jan-20 13:50 329 6 gusting 22 1.6
2020-Jan-20 13:40 342 13 gusting 20 1.6
2020-Jan-20 13:30 319 5 gusting 14 1.6
2020-Jan-20 13:20 334 7 gusting 12 1.6
2020-Jan-20 13:10 355 3 gusting 13 1.5
2020-Jan-20 13:00 355 4 gusting 14 1.4
2020-Jan-20 12:50 333 8 gusting 14 1.5
2020-Jan-20 12:40 346 4 gusting 18 1.7
2020-Jan-20 12:20 319 5 gusting 13 1.8
2020-Jan-20 12:10 024 2 gusting 19 1.9
2020-Jan-20 12:00 337 7 gusting 15 1.9
2020-Jan-20 11:50 338 8 gusting 13 1.7
2020-Jan-20 11:30 321 6 gusting 10 1.7
2020-Jan-20 11:20 327 4 gusting 10 1.8
2020-Jan-20 11:00 333 6 gusting 13 2.0
2020-Jan-20 10:50 326 7 gusting 12 2.1
2020-Jan-20 10:40 315 4 gusting 13 2.2
2020-Jan-20 10:30 340 8 gusting 13 2.2
2020-Jan-20 10:20 319 9 gusting 13 2.3
2020-Jan-20 10:00 316 7 gusting 11 2.5
2020-Jan-20 09:50 302 6 gusting 11 2.6
2020-Jan-20 09:30 324 7 gusting 13 2.9
2020-Jan-20 09:20 005 12 gusting 12 2.9
2020-Jan-20 09:00 337 6 gusting 13 3.1
2020-Jan-20 08:40 324 8 gusting 12 3.1
2020-Jan-20 08:30 322 8 gusting 13 3.2
2020-Jan-20 08:20 304 9 gusting 16 3.3
2020-Jan-20 08:00 303 6 gusting 12 3.4
2020-Jan-20 07:50 321 8 gusting 10 3.6
2020-Jan-20 07:30 323 3 gusting 13 3.9
2020-Jan-20 07:20 324 3 gusting 11 4.0
2020-Jan-20 07:00 355 9 gusting 12 4.3
2020-Jan-20 06:40 339 7 gusting 13 4.6
2020-Jan-20 06:30 298 8 gusting 9 4.7
2020-Jan-20 06:20 319 3 gusting 8 4.8
2020-Jan-20 06:00 317 7 gusting 11 5.1
2020-Jan-20 05:50 310 7 gusting 11 5.1
2020-Jan-20 05:40 321 3 gusting 9 5.2
2020-Jan-20 05:30 327 2 gusting 10 5.3
2020-Jan-20 05:20 315 4 gusting 9 5.4
2020-Jan-20 05:00 324 3 gusting 9 5.7
2020-Jan-20 04:40 339 8 gusting 10 5.9
2020-Jan-20 04:30 330 5 gusting 10 6.0
2020-Jan-20 04:20 319 2 gusting 8 6.1
2020-Jan-20 04:00 319 4 gusting 12 6.4
2020-Jan-20 03:50 319 4 gusting 12 6.7
2020-Jan-20 03:40 316 3 gusting 14 6.9
2020-Jan-20 03:30 309 6 gusting 13 7.1
2020-Jan-20 03:20 355 8 gusting 14 7.3
2020-Jan-20 03:00 350 8 gusting 13 7.5
2020-Jan-20 02:50 333 6 gusting 16 7.6
2020-Jan-20 02:40 360 6 gusting 16 7.6
2020-Jan-20 02:30 311 10 gusting 13 7.6
2020-Jan-20 02:20 355 6 gusting 14 7.7
2020-Jan-20 02:00 333 8 gusting 15 7.9
2020-Jan-20 01:50 335 6 gusting 15 7.9
2020-Jan-20 01:40 310 10 gusting 17 8.1
2020-Jan-20 01:30 338 13 gusting 14 8.1
2020-Jan-20 01:00 319 6 gusting 12 8.2
2020-Jan-20 00:50 331 13 gusting 14 8.4
2020-Jan-20 00:40 321 13 gusting 14 8.4
2020-Jan-20 00:30 342 9 gusting 14 8.6
2020-Jan-20 00:20 323 8 gusting 11 8.7
2020-Jan-20 00:00 334 10 gusting 12 9.1
2020-Jan-19 23:50 345 3 gusting 23 9.3
2020-Jan-19 23:40 360 7 gusting 13 9.4
2020-Jan-19 23:30 355 8 gusting 14 9.6
2020-Jan-19 23:20 360 4 gusting 15 9.8
2020-Jan-19 23:00 340 6 gusting 19 10.3
2020-Jan-19 22:50 346 17 gusting 19 10.6
2020-Jan-19 22:40 329 5 gusting 17 10.9
2020-Jan-19 22:30 312 6 gusting 20 11.1
2020-Jan-19 22:20 289 6 gusting 19 11.3
2020-Jan-19 22:00 294 10 gusting 19 11.7
2020-Jan-19 21:50 345 6 gusting 19 11.8
2020-Jan-19 21:40 338 13 gusting 18 11.9
2020-Jan-19 21:30 323 13 gusting 20 11.9
2020-Jan-19 21:20 298 11 gusting 20 12.3
2020-Jan-19 21:00 013 6 gusting 20 12.1
2020-Jan-19 20:50 350 8 gusting 17 11.8
2020-Jan-19 20:40 360 5 gusting 19 11.6
2020-Jan-19 20:30 311 11 gusting 21 11.4
2020-Jan-19 20:20 011 7 gusting 18 10.6
2020-Jan-19 20:00 320 1 gusting 19 10.1
2020-Jan-19 19:50 005 12 gusting 16 10.1
2020-Jan-19 19:40 335 15 gusting 19 10.3
2020-Jan-19 19:30 311 8 gusting 13 10.5
2020-Jan-19 19:20 315 8 gusting 14 10.1
2020-Jan-19 19:00 312 9 gusting 16 9.9
2020-Jan-19 18:50 351 13 gusting 16 9.8
2020-Jan-19 18:40 331 17 gusting 22 9.6
2020-Jan-19 18:30 346 18 gusting 24 9.6
2020-Jan-19 18:20 337 12 gusting 17 9.6
2020-Jan-19 18:00 015 13 gusting 19 9.4
2020-Jan-19 17:50 324 17 gusting 21 9.7
2020-Jan-19 17:40 312 9 gusting 18 9.6
2020-Jan-19 17:30 338 9 gusting 19 9.4
2020-Jan-19 17:20 014 3 gusting 19 8.9
2020-Jan-19 17:00 344 3 gusting 17 8.5
2020-Jan-19 16:50 314 5 gusting 17 8.2
2020-Jan-19 16:40 304 9 gusting 15 8.1
2020-Jan-19 16:20 355 2 gusting 20 8.0
2020-Jan-19 16:00 333 8 gusting 16 8.3
2020-Jan-19 15:40 324 7 gusting 23 8.3
2020-Jan-19 15:30 344 15 gusting 24 8.6
2020-Jan-19 15:00 305 9 gusting 22 9.4
2020-Jan-19 14:40 315 12 gusting 17 9.9
2020-Jan-19 14:30 259 6 gusting 19 10.2
2020-Jan-19 14:00 343 9 gusting 18 11.1
2020-Jan-19 13:50 298 4 gusting 22 11.3
2020-Jan-19 13:30 331 12 gusting 17 11.4
2020-Jan-19 13:00 355 7 gusting 18 11.7
2020-Jan-19 12:50 342 18 gusting 20 12.1
2020-Jan-19 12:40 026 10 gusting 20 12.4
2020-Jan-19 12:20 323 7 gusting 19 12.9
2020-Jan-19 12:00 347 10 gusting 19 13.3
2020-Jan-19 11:50 329 12 gusting 17 13.4
2020-Jan-19 11:30 355 6 gusting 15 13.8
2020-Jan-19 11:20 348 5 gusting 14 14.1
2020-Jan-19 11:10 333 6 gusting 16 14.3
2020-Jan-19 11:00 347 7 gusting 21 14.2
2020-Jan-19 10:40 343 7 gusting 20 14.7
2020-Jan-19 10:30 350 5 gusting 21 15.7
2020-Jan-19 10:10 344 5 gusting 13 16.2
2020-Jan-19 10:00 306 6 gusting 17 16.2
2020-Jan-19 09:50 333 10 gusting 16 16.3
2020-Jan-19 09:30 337 2 gusting 9 16.4
2020-Jan-19 09:10 005 1 gusting 13 16.5
2020-Jan-19 09:00 009 8 gusting 16 16.6
2020-Jan-19 08:50 342 8 gusting 19 16.9
2020-Jan-19 08:40 319 13 gusting 16 17.9
2020-Jan-19 08:30 287 6 gusting 7 18.9
2020-Jan-19 08:20 292 4 gusting 7 18.9
2020-Jan-19 08:00 233 1 gusting 2 18.9
2020-Jan-19 07:50 233 2 gusting 3 18.9
2020-Jan-19 07:40 233 1 gusting 3 18.9
2020-Jan-19 07:30 233 2 gusting 4 18.9
2020-Jan-19 07:20 233 1 gusting 4 19.0
2020-Jan-19 07:00 207 4 gusting 4 19.1
2020-Jan-19 06:50 206 1 gusting 3 19.2
2020-Jan-19 06:40 206 3 gusting 4 19.2
2020-Jan-19 06:30 206 2 gusting 4 19.2
2020-Jan-19 06:20 206 3 gusting 4 19.2
2020-Jan-19 06:00 204 2 gusting 5 19.2
2020-Jan-19 05:50 204 0 gusting 5 19.2
2020-Jan-19 05:40 203 2 gusting 6 19.2
2020-Jan-19 05:30 200 2 gusting 5 19.1
2020-Jan-19 05:20 201 3 gusting 6 19.1
2020-Jan-19 05:00 208 2 gusting 5 18.8
2020-Jan-19 04:50 208 2 gusting 6 18.6
2020-Jan-19 04:40 208 1 gusting 4 18.5
2020-Jan-19 04:30 208 1 gusting 2 18.3
2020-Jan-19 04:20 208 2 gusting 3 18.2
2020-Jan-19 04:00 208 0 gusting 1 18.2
2020-Jan-19 03:50 18.2
2020-Jan-19 03:40 208 0 gusting 1 18.2
2020-Jan-19 03:30 208 1 gusting 2 18.3
2020-Jan-19 03:20 18.3
2020-Jan-19 03:00 208 18.3
2020-Jan-19 02:50 208 2 gusting 4 18.3
2020-Jan-19 02:40 208 0 gusting 4 18.3
2020-Jan-19 02:30 208 3 gusting 4 18.3
2020-Jan-19 02:20 208 1 gusting 3 18.3
2020-Jan-19 02:00 208 2 gusting 2 18.4
2020-Jan-19 01:50 208 0 gusting 1 18.6
2020-Jan-19 01:40 208 0 gusting 1 18.6
2020-Jan-19 01:30 208 0 gusting 1 18.6
2020-Jan-19 01:20 208 0 gusting 1 18.6
2020-Jan-19 01:00 208 18.7
2020-Jan-19 00:50 208 0 gusting 1 18.7
2020-Jan-19 00:40 208 0 gusting 1 18.7
2020-Jan-19 00:30 18.7
2020-Jan-19 00:20 18.6
2020-Jan-19 00:00 208 0 gusting 1 18.7
2020-Jan-18 23:50 208 0 gusting 2 18.7
2020-Jan-18 23:40 208 1 gusting 1 18.7
2020-Jan-18 23:30 208 0 gusting 4 18.8
2020-Jan-18 23:20 208 2 gusting 4 18.8
2020-Jan-18 23:00 211 1 gusting 2 18.9